Carnival Glory — 3FPS9 — position and weather

sailwx.info

Track history (hours):
 
Tides and Currents Weather Stations Pressure Air Temp Water Temp Dewpoint Dewpoint Depression Visibility Wind Speed Wind Dir Waves Ship Positions

Carnival Glory

Operator: Carnival Cruise Lines

Last reported at 2017-May-25 23:00 UTC. Time now 2017-May-27 02:18 UTC.
Position N 20°41' W 086°51'.

Type: Passenger vessel. MMSI: 357659000.

Date/timePositionNaut miles runAvg speedWind from/ knotsBaromVisibWave heightAir tempDewpointWater temp
2017-May-25 23:00N 20°41' W 086°51'816.5
2017-May-25 22:30N 20°35' W 086°57'611.4
2017-May-25 22:00N 20°30' W 086°59'1 2.2
2017-May-25 21:26N 20°29' W 086°59'0 0.0
2017-May-25 20:56N 20°29' W 086°59'0 0.0
2017-May-25 20:26N 20°29' W 086°59'0 0.0
2017-May-25 19:59N 20°29' W 086°59'0 0.0
2017-May-25 19:28N 20°29' W 086°59'0 0.0
2017-May-25 18:59N 20°29' W 086°59'0 0.0
2017-May-25 18:28N 20°29' W 086°59'0 0.0
2017-May-25 17:59N 20°29' W 086°59'0 0.0
2017-May-25 17:20N 20°29' W 086°59'0 0.0
2017-May-25 16:56N 20°29' W 086°59'0 0.0
2017-May-25 16:28N 20°29' W 086°59'0 0.0
2017-May-25 15:58N 20°29' W 086°59'0 0.0
2017-May-25 15:29N 20°29' W 086°59'0 0.0
2017-May-25 14:59N 20°29' W 086°59'0 0.0
2017-May-25 13:56N 20°29' W 086°59'0 0.0
2017-May-25 13:25N 20°29' W 086°59'0 0.0
2017-May-25 12:59N 20°29' W 086°59'0 0.0
2017-May-25 12:29N 20°29' W 086°59'0 0.0
2017-May-25 11:58N 20°29' W 086°59'1 1.1
2017-May-25 11:30N 20°29' W 086°59'3 6.7
2017-May-25 11:00N 20°28' W 087°02'611.1
2017-May-25 10:30N 20°23' W 087°05'  
2017-May-23 00:00N 18°30' W 082°36'428 9.0 100 / 201016.910.8 26.023.128.0
2017-May-21 00:07N 25°13' W 080°00'214.5
2017-May-21 00:00N 25°15' W 079°59'714.5
2017-May-20 23:30N 25°21' W 079°56'815.4
2017-May-20 23:00N 25°29' W 079°56'816.0
2017-May-20 22:30N 25°37' W 079°56'815.5
2017-May-20 22:00N 25°43' W 080°01'510.5
2017-May-20 21:30N 25°45' W 080°07'4 7.1
2017-May-20 21:00N 25°47' W 080°10'0 0.0
2017-May-20 20:27N 25°47' W 080°10'0 0.0
2017-May-20 20:00N 25°47' W 080°10'0 0.0
2017-May-20 19:27N 25°47' W 080°10'0 0.0
2017-May-20 19:00N 25°47' W 080°10'0 0.0
2017-May-20 18:27N 25°47' W 080°10'0 0.0
2017-May-20 18:00N 25°47' W 080°10'0 0.0
2017-May-20 17:27N 25°47' W 080°10'0 0.0
2017-May-20 17:00N 25°47' W 080°10'0 0.0
2017-May-20 16:30N 25°47' W 080°10'0 0.0
2017-May-20 16:00N 25°47' W 080°10'0 0.0
2017-May-20 15:30N 25°47' W 080°10'0 0.0
2017-May-20 15:00N 25°47' W 080°10'0 0.0
2017-May-20 14:00N 25°47' W 080°10'0 0.0
2017-May-20 13:30N 25°47' W 080°10'0 0.0
2017-May-20 13:00N 25°47' W 080°10'0 0.0
2017-May-20 12:30N 25°47' W 080°10'0 0.0
2017-May-20 12:00N 25°47' W 080°10'0 0.0
2017-May-20 11:30N 25°47' W 080°10'0 0.0
2017-May-20 11:00N 25°47' W 080°10'0 0.0
2017-May-20 10:30N 25°47' W 080°10'0 0.0
2017-May-20 10:00N 25°47' W 080°10'0 0.0
2017-May-20 09:27N 25°47' W 080°10'0 0.0
2017-May-20 09:00N 25°47' W 080°10'1 1.5
2017-May-20 08:31N 25°47' W 080°11'3 5.0
2017-May-20 08:00N 25°46' W 080°08'510.1
2017-May-20 07:30N 25°47' W 080°03'611.7
2017-May-20 07:00N 25°50' W 079°57'511.0
2017-May-20 06:30N 25°53' W 079°52'510.1
2017-May-20 06:00N 25°56' W 079°48'5 9.7
2017-May-20 05:30N 25°59' W 079°43'5 9.7
2017-May-20 05:00N 26°02' W 079°39'611.5
2017-May-20 04:30N 26°04' W 079°33'714.6
2017-May-20 04:00N 26°07' W 079°26'816.1
2017-May-20 03:30N 26°12' W 079°19'7316.2
2017-May-19 23:00N 25°54' W 078°00'22819.0 100 / 201016.910.8 26.023.128.0
2017-May-19 11:00N 24°06' W 074°18'22018.3 120 / 101015.9 5.4 25.022.022.0
2017-May-18 23:00N 21°42' W 071°18'56 4.6 080 / 241016.910.8
2017-May-18 11:00N 21°18' W 070°24'29320.1 150 / 151015.9 5.4 25.022.022.0
2017-May-17 20:23N 18°31' W 066°08'4 9.9
2017-May-17 20:00N 18°27' W 066°07'1 0.1
2017-May-17 11:12N 18°28' W 066°07'0 0.0
2017-May-17 10:46N 18°28' W 066°07'0 1.5
2017-May-17 10:29N 18°27' W 066°07'5 9.5
2017-May-17 10:00N 18°32' W 066°08'67 6.2
2017-May-16 23:12N 18°13' W 064°59'210.0
2017-May-16 22:58N 18°14' W 064°57'  
Track history (hours):
 
Tides and Currents Weather Stations Pressure Air Temp Water Temp Dewpoint Dewpoint Depression Visibility Wind Speed Wind Dir Waves Ship Positions

Carnival Glory

Operator: Carnival Cruise Lines

Last reported at 2017-May-25 23:00 UTC. Time now 2017-May-27 02:18 UTC.
Position N 20°41' W 086°51'.

Type: Passenger vessel. MMSI: 357659000.

Date/timePositionNaut miles runAvg speedWind from/ knotsBaromVisibWave heightAir tempDewpointWater temp
2017-May-25 23:00N 20°41' W 086°51'816.5
2017-May-25 22:30N 20°35' W 086°57'611.4
2017-May-25 22:00N 20°30' W 086°59'1 2.2
2017-May-25 21:26N 20°29' W 086°59'0 0.0
2017-May-25 20:56N 20°29' W 086°59'0 0.0
2017-May-25 20:26N 20°29' W 086°59'0 0.0
2017-May-25 19:59N 20°29' W 086°59'0 0.0
2017-May-25 19:28N 20°29' W 086°59'0 0.0
2017-May-25 18:59N 20°29' W 086°59'0 0.0
2017-May-25 18:28N 20°29' W 086°59'0 0.0
2017-May-25 17:59N 20°29' W 086°59'0 0.0
2017-May-25 17:20N 20°29' W 086°59'0 0.0
2017-May-25 16:56N 20°29' W 086°59'0 0.0
2017-May-25 16:28N 20°29' W 086°59'0 0.0
2017-May-25 15:58N 20°29' W 086°59'0 0.0
2017-May-25 15:29N 20°29' W 086°59'0 0.0
2017-May-25 14:59N 20°29' W 086°59'0 0.0
2017-May-25 13:56N 20°29' W 086°59'0 0.0
2017-May-25 13:25N 20°29' W 086°59'0 0.0
2017-May-25 12:59N 20°29' W 086°59'0 0.0
2017-May-25 12:29N 20°29' W 086°59'0 0.0
2017-May-25 11:58N 20°29' W 086°59'1 1.1
2017-May-25 11:30N 20°29' W 086°59'3 6.7
2017-May-25 11:00N 20°28' W 087°02'611.1
2017-May-25 10:30N 20°23' W 087°05'  
2017-May-23 00:00N 18°30' W 082°36'428 9.0 100 / 201016.910.8 26.023.128.0
2017-May-21 00:07N 25°13' W 080°00'214.5
2017-May-21 00:00N 25°15' W 079°59'714.5
2017-May-20 23:30N 25°21' W 079°56'815.4
2017-May-20 23:00N 25°29' W 079°56'816.0
2017-May-20 22:30N 25°37' W 079°56'815.5
2017-May-20 22:00N 25°43' W 080°01'510.5
2017-May-20 21:30N 25°45' W 080°07'4 7.1
2017-May-20 21:00N 25°47' W 080°10'0 0.0
2017-May-20 20:27N 25°47' W 080°10'0 0.0
2017-May-20 20:00N 25°47' W 080°10'0 0.0
2017-May-20 19:27N 25°47' W 080°10'0 0.0
2017-May-20 19:00N 25°47' W 080°10'0 0.0
2017-May-20 18:27N 25°47' W 080°10'0 0.0
2017-May-20 18:00N 25°47' W 080°10'0 0.0
2017-May-20 17:27N 25°47' W 080°10'0 0.0
2017-May-20 17:00N 25°47' W 080°10'0 0.0
2017-May-20 16:30N 25°47' W 080°10'0 0.0
2017-May-20 16:00N 25°47' W 080°10'0 0.0
2017-May-20 15:30N 25°47' W 080°10'0 0.0
2017-May-20 15:00N 25°47' W 080°10'0 0.0
2017-May-20 14:00N 25°47' W 080°10'0 0.0
2017-May-20 13:30N 25°47' W 080°10'0 0.0
2017-May-20 13:00N 25°47' W 080°10'0 0.0
2017-May-20 12:30N 25°47' W 080°10'0 0.0
2017-May-20 12:00N 25°47' W 080°10'0 0.0
2017-May-20 11:30N 25°47' W 080°10'0 0.0
2017-May-20 11:00N 25°47' W 080°10'0 0.0
2017-May-20 10:30N 25°47' W 080°10'0 0.0
2017-May-20 10:00N 25°47' W 080°10'0 0.0
2017-May-20 09:27N 25°47' W 080°10'0 0.0
2017-May-20 09:00N 25°47' W 080°10'1 1.5
2017-May-20 08:31N 25°47' W 080°11'3 5.0
2017-May-20 08:00N 25°46' W 080°08'510.1
2017-May-20 07:30N 25°47' W 080°03'611.7
2017-May-20 07:00N 25°50' W 079°57'511.0
2017-May-20 06:30N 25°53' W 079°52'510.1
2017-May-20 06:00N 25°56' W 079°48'5 9.7
2017-May-20 05:30N 25°59' W 079°43'5 9.7
2017-May-20 05:00N 26°02' W 079°39'611.5
2017-May-20 04:30N 26°04' W 079°33'714.6
2017-May-20 04:00N 26°07' W 079°26'816.1
2017-May-20 03:30N 26°12' W 079°19'7316.2
2017-May-19 23:00N 25°54' W 078°00'22819.0 100 / 201016.910.8 26.023.128.0
2017-May-19 11:00N 24°06' W 074°18'22018.3 120 / 101015.9 5.4 25.022.022.0
2017-May-18 23:00N 21°42' W 071°18'56 4.6 080 / 241016.910.8
2017-May-18 11:00N 21°18' W 070°24'29320.1 150 / 151015.9 5.4 25.022.022.0
2017-May-17 20:23N 18°31' W 066°08'4 9.9
2017-May-17 20:00N 18°27' W 066°07'1 0.1
2017-May-17 11:12N 18°28' W 066°07'0 0.0
2017-May-17 10:46N 18°28' W 066°07'0 1.5
2017-May-17 10:29N 18°27' W 066°07'5 9.5
2017-May-17 10:00N 18°32' W 066°08'67 6.2
2017-May-16 23:12N 18°13' W 064°59'210.0
2017-May-16 22:58N 18°14' W 064°57'  

Dump ship's entire track history